#timestamp,LO_Frequency,Hit,StdDev 
1508839215.2,286047004.0,N
1508839235.0,286047001.5,N
1508839235.9,286047001.5,N
1508839255.8,286047004.0,N
1508839275.6,286047008.4,Y
1508839295.4,286047004.0,P
1508839315.3,286047003.4,P
1508839335.1,286047004.2,P
1508839355.9,286047003.6,Y
1508839375.7,286047000.2,P
1508839395.5,286047002.8,N
1508839415.4,286046997.3,N
1508839435.2,286046998.0,N
1508839455.0,286046998.9,N
1508839455.9,286046998.9,N
1508839475.8,286046996.9,N
1508839495.6,286046998.7,N
1508839515.4,286046996.5,N
1508839535.3,286047001.9,N
1508839555.1,286047002.6,N
1508839556.0,286047002.6,N
1508839575.8,286047002.0,N
1508839595.7,286047001.5,N
1508839615.5,286047002.4,N
1508839635.3,286047004.4,N
1508839655.2,286047002.4,N
1508839675.9,286047005.2,N
1508839695.7,286046999.7,N
1508839715.6,286046999.9,N
1508839735.4,286046995.3,N
1508839755.2,286046994.9,N
1508839775.1,286046998.4,N
1508839776.0,286046998.4,N
1508839795.8,286047000.8,N
1508839815.6,286046998.5,N
1508839835.5,286047001.0,N
1508839855.3,286046998.2,N
1508839875.1,286046997.9,N
1508839895.9,286046999.2,N
1508839915.7,286046998.8,N
1508839935.5,286047000.9,N
1508839955.4,286046996.6,N
1508839975.2,286046999.5,N
1508839995.0,286047002.7,N
1508839996.0,286047002.7,N
1508840015.8,286046999.5,N
1508840035.6,286046996.0,N
1508840055.5,286046994.9,N
1508840075.3,286046995.6,N
1508840095.1,286046992.1,N
1508840115.9,286046990.1,Y
1508840135.7,286046993.9,P
1508840155.5,286046993.8,N
1508840175.4,286046993.0,N
1508840195.2,286046987.3,Y
1508840215.1,286046992.5,P
1508840216.0,286046992.5,P
1508840235.8,286046991.7,P
1508840255.6,286046996.2,Y
1508840275.5,286047002.4,P
1508840295.3,286047000.8,N
1508840315.1,286047000.2,N
1508840335.9,286047003.2,N
1508840355.7,286047003.4,N
1508840375.5,286047003.0,N
1508840395.4,286046999.8,N
1508840415.2,286047003.0,N
1508840435.0,286047003.9,N
1508840435.9,286047003.9,N
1508840455.8,286047005.2,N
1508840475.6,286047005.2,N
1508840495.4,286047006.5,N
1508840515.3,286047003.0,N
1508840535.1,286047003.7,N
1508840555.8,286047003.1,N
1508840575.7,286047002.1,N
1508840595.5,286047001.5,N
1508840615.3,286047006.8,N
1508840635.2,286047009.9,Y
1508840655.0,286047005.5,P
1508840655.9,286047005.5,P
1508840675.8,286047003.6,N
1508840695.6,286047005.1,Y
1508840715.4,286047000.1,P
1508840735.3,286047003.9,N
1508840755.1,286047000.1,N
1508840775.9,286047005.5,N
1508840795.7,286047001.8,N
1508840815.5,286047002.5,N
1508840835.4,286047002.6,N
1508840855.2,286047000.5,N
1508840875.0,286046998.9,N
1508840875.9,286046998.9,N
1508840895.8,286046995.4,N
1508840915.6,286046999.6,N
1508840935.4,286046996.2,N
1508840955.3,286046993.9,N
1508840975.1,286046993.7,N
1508840976.0,286046993.7,N
1508840995.8,286046993.6,N
1508841015.7,286046995.7,N
1508841035.5,286046996.4,N
1508841055.3,286046991.7,N
1508841075.2,286046993.4,N
1508841095.9,286046998.0,N
1508841115.7,286046991.7,N
1508841135.6,286046992.7,N
1508841155.4,286046994.1,N
1508841175.2,286046997.5,N
1508841195.1,286046995.6,N
1508841196.0,286046995.6,N
1508841215.8,286046993.5,N
1508841235.6,286046995.8,N
1508841255.5,286046996.6,N
1508841275.3,286046992.1,N
1508841295.1,286046996.1,N
1508841315.9,286046999.8,N
1508841335.7,286046996.7,N
1508841355.6,286046995.1,N
1508841375.4,286047000.5,N
1508841395.2,286046994.9,N
1508841415.1,286046998.0,N
1508841416.0,286046998.0,N
1508841435.8,286046996.4,N
1508841455.6,286046992.7,Y
1508841475.5,286047002.3,P
1508841495.3,286047003.7,N
1508841515.1,286047003.6,N
1508841535.9,286047004.2,N
1508841555.7,286047002.5,N
1508841575.5,286047000.4,N
1508841595.4,286046996.8,N
1508841615.2,286046995.7,N
1508841635.0,286046998.8,N
1508841635.9,286046998.8,N
1508841655.8,286046999.2,N
1508841675.6,286046995.9,N
1508841695.4,286046996.3,N
1508841715.3,286046999.2,N
1508841735.1,286046998.6,N
1508841755.8,286046995.8,N
1508841775.7,286046995.0,N
1508841795.5,286047000.1,N
1508841815.4,286046998.2,N
1508841835.2,286046999.1,N
1508841855.0,286046995.3,N
1508841855.9,286046995.3,N
1508841875.8,286046995.1,N
1508841895.6,286046996.8,N
1508841915.4,286047000.3,N
1508841935.3,286046998.5,N
1508841955.1,286046998.1,N
1508841956.0,286046998.1,N
1508841975.8,286046997.8,N
1508841995.7,286046995.8,N
1508842015.5,286046995.0,N
1508842035.4,286046996.1,N
1508842055.2,286046995.2,N
1508842075.0,286046997.3,N
1508842075.9,286046997.3,N
1508842095.8,286046998.5,N
1508842115.6,286046996.6,N
1508842135.4,286046995.0,Y
1508842155.3,286046998.9,P
1508842175.1,286046998.4,N
1508842195.8,286047000.5,N
1508842215.7,286047000.7,N
1508842235.5,286046998.9,N
1508842255.3,286046999.9,N
1508842275.2,286047003.4,N
1508842295.0,286047004.8,N
1508842295.9,286047004.8,N
1508842315.8,286047007.5,N
1508842335.6,286047003.5,N
1508842355.4,286047002.0,N
1508842375.3,286047005.9,N
1508842395.1,286047003.7,N
1508842396.0,286047003.7,N
1508842415.8,286047002.7,N
1508842435.7,286046999.8,N
1508842455.5,286047002.2,N
1508842475.3,286047003.4,N
1508842495.2,286047002.0,N
1508842515.0,286047004.4,N
1508842515.9,286047004.4,N
1508842535.7,286047003.6,N
1508842555.6,286047004.2,N
1508842575.4,286047002.3,N
1508842595.2,286047003.6,N
1508842615.1,286047006.0,N
1508842616.0,286047006.0,N
1508842635.8,286047003.5,N
1508842655.7,286047008.9,Y
1508842675.5,286047009.1,P
1508842695.3,286047004.5,N
1508842715.2,286047006.7,N
1508842735.9,286047001.7,N
1508842755.7,286047002.9,N
1508842775.6,286047005.4,N
1508842795.4,286047005.1,N
